• In Portugal
  • List of Countries
  • For 7 days
  • Water Temperature
  • Satellite Maps
  • Weather Map
  • Weather Widgets
  • user-avatar
    Login

    Hourly Weather Grzmiaca

    Today, 18 July, Wednesday

    Time Temperature Precipitation Wind Pressure Humidity
    00:00 +15°C° 0.1 mm 4 mps 714 mmHg 94%
    01:00 +15°C° 0.1 mm 4 mps 714 mmHg 95%
    02:00 +15°C° 0.3 mm 4 mps 714 mmHg 95%
    03:00 +15°C° 0.3 mm 5 mps 714 mmHg 94%
    04:00 +15°C° 0.3 mm 5 mps 714 mmHg 94%
    05:00 +15°C° 1.2 mm 6 mps 714 mmHg 94%
    06:00 +15°C° 1.2 mm 6 mps 714 mmHg 94%
    07:00 +15°C° 1.2 mm 6 mps 714 mmHg 94%
    08:00 +15°C° 1.4 mm 7 mps 714 mmHg 93%
    09:00 +15°C° 1.4 mm 7 mps 714 mmHg 93%
    10:00 +15°C° 1.4 mm 7 mps 715 mmHg 93%
    11:00 +15°C° 0.9 mm 7 mps 715 mmHg 93%
    12:00 +16°C° 0.9 mm 7 mps 715 mmHg 93%
    13:00 +16°C° 0.9 mm 7 mps 715 mmHg 92%
    14:00 +16°C° 0.3 mm 7 mps 715 mmHg 91%
    15:00 +16°C° 0.3 mm 7 mps 716 mmHg 90%
    16:00 +16°C° 0.3 mm 6 mps 716 mmHg 89%
    17:00 +16°C° 0.2 mm 6 mps 716 mmHg 90%
    18:00 +16°C° 0.2 mm 5 mps 716 mmHg 91%
    19:00 +16°C° 0.2 mm 5 mps 716 mmHg 91%
    20:00 +17°C° 0.2 mm 4 mps 717 mmHg 92%
    21:00 +17°C° 0.2 mm 4 mps 717 mmHg 93%
    22:00 +15°C° 0.2 mm 4 mps 717 mmHg 95%
    23:00 +15°C° 0.3 mm 4 mps 717 mmHg 95%

    Tomorrow, 19 July, Thursday

    Time Temperature Precipitation Wind Pressure Humidity
    00:00 +16°C° 0.3 mm 3 mps 717 mmHg 95%
    01:00 +16°C° 0.3 mm 3 mps 717 mmHg 95%
    02:00 +16°C° 0.2 mm 3 mps 718 mmHg 95%
    03:00 +16°C° 0.2 mm 3 mps 718 mmHg 95%
    04:00 +16°C° 0.2 mm 3 mps 718 mmHg 95%
    05:00 +16°C° 0.1 mm 3 mps 718 mmHg 94%
    06:00 +15°C° 0.1 mm 4 mps 718 mmHg 93%
    07:00 +17°C° 0.1 mm 4 mps 718 mmHg 91%
    08:00 +17°C° 0.2 mm 4 mps 718 mmHg 90%
    09:00 +17°C° 0.2 mm 5 mps 718 mmHg 88%
    10:00 +17°C° 0.2 mm 5 mps 719 mmHg 86%
    11:00 +17°C° 0.2 mm 5 mps 719 mmHg 86%
    12:00 +17°C° 0.2 mm 5 mps 719 mmHg 86%
    13:00 +17°C° 0.2 mm 5 mps 718 mmHg 86%
    14:00 +17°C° 0.2 mm 5 mps 718 mmHg 88%
    15:00 +17°C° 0.2 mm 4 mps 718 mmHg 89%
    16:00 +17°C° 0.2 mm 4 mps 718 mmHg 90%
    17:00 +17°C° 0.1 mm 4 mps 718 mmHg 91%
    18:00 +17°C° 0.1 mm 3 mps 718 mmHg 92%
    19:00 +17°C° 0.1 mm 3 mps 718 mmHg 93%
    20:00 +17°C° 0.2 mm 3 mps 719 mmHg 94%
    21:00 +16°C° 0.2 mm 3 mps 719 mmHg 95%
    22:00 +16°C° 0.2 mm 2 mps 719 mmHg 96%
    23:00 +16°C° 0.1 mm 2 mps 719 mmHg 96%

    Day after tomorrow, 20 July, Friday

    Time Temperature Precipitation Wind Pressure Humidity
    00:00 +15°C° 0.1 mm 2 mps 719 mmHg 96%
    01:00 +15°C° 0.1 mm 2 mps 719 mmHg 96%
    02:00 +15°C° 0 mm 2 mps 719 mmHg 96%
    03:00 +15°C° 0 mm 2 mps 719 mmHg 96%
    04:00 +15°C° 0 mm 2 mps 719 mmHg 96%
    05:00 +15°C° 0 mm 2 mps 719 mmHg 93%
    06:00 +16°C° 0 mm 2 mps 719 mmHg 90%
    07:00 +17°C° 0 mm 2 mps 719 mmHg 87%
    08:00 +18°C° 0 mm 2 mps 719 mmHg 81%
    09:00 +19°C° 0 mm 3 mps 719 mmHg 74%
    10:00 +20°C° 0 mm 3 mps 719 mmHg 68%
    11:00 +21°C° 0 mm 2 mps 719 mmHg 64%
    12:00 +23°C° 0 mm 2 mps 719 mmHg 61%
    13:00 +24°C° 0 mm 2 mps 719 mmHg 57%
    14:00 +24°C° 0 mm 2 mps 718 mmHg 55%
    15:00 +25°C° 0 mm 2 mps 718 mmHg 54%
    16:00 +25°C° 0 mm 2 mps 718 mmHg 52%
    17:00 +24°C° 0 mm 2 mps 718 mmHg 57%
    18:00 +21°C° 0 mm 2 mps 717 mmHg 62%
    19:00 +21°C° 0 mm 1 mps 717 mmHg 67%
    20:00 +20°C° 0 mm 1 mps 717 mmHg 70%
    21:00 +18°C° 0 mm 1 mps 717 mmHg 72%
    22:00 +15°C° 0 mm 1 mps 717 mmHg 75%
    23:00 +15°C° 0 mm 1 mps 717 mmHg 75%

    21 July, Saturday

    Time Temperature Precipitation Wind Pressure Humidity
    00:00 +15°C° 0 mm 1 mps 717 mmHg 76%
    01:00 +14°C° 0 mm 1 mps 716 mmHg 76%
    02:00 +14°C° 0 mm 1 mps 716 mmHg 76%
    03:00 +14°C° 0 mm 1 mps 716 mmHg 77%
    04:00 +14°C° 0 mm 1 mps 716 mmHg 77%
    05:00 +15°C° 0 mm 1 mps 716 mmHg 73%
    06:00 +18°C° 0 mm 1 mps 716 mmHg 69%
    07:00 +20°C° 0 mm 1 mps 716 mmHg 65%
    08:00 +21°C° 0 mm 1 mps 717 mmHg 61%
    09:00 +23°C° 0 mm 1 mps 717 mmHg 56%
    10:00 +24°C° 0 mm 2 mps 717 mmHg 52%
    11:00 +25°C° 0 mm 1 mps 717 mmHg 50%
    12:00 +25°C° 0 mm 1 mps 716 mmHg 49%
    13:00 +26°C° 0 mm 1 mps 716 mmHg 47%
    14:00 +26°C° 0 mm 1 mps 716 mmHg 48%
    15:00 +26°C° 0 mm 1 mps 716 mmHg 48%
    16:00 +26°C° 0 mm 2 mps 716 mmHg 49%
    17:00 +24°C° 0 mm 2 mps 715 mmHg 56%
    18:00 +23°C° 0 mm 2 mps 715 mmHg 62%
    19:00 +21°C° 0 mm 2 mps 715 mmHg 69%
    20:00 +19°C° 0 mm 2 mps 715 mmHg 71%
    21:00 +18°C° 0 mm 2 mps 715 mmHg 74%
    22:00 +18°C° 0 mm 1 mps 715 mmHg 76%
    23:00 +16°C° 0 mm 1 mps 715 mmHg 77%

    22 July, Sunday

    Time Temperature Precipitation Wind Pressure Humidity
    00:00 +16°C° 0 mm 1 mps 715 mmHg 78%
    01:00 +16°C° 0 mm 1 mps 715 mmHg 79%
    02:00 +15°C° 0 mm 1 mps 715 mmHg 80%
    03:00 +15°C° 0 mm 1 mps 715 mmHg 81%
    04:00 +15°C° 0 mm 1 mps 714 mmHg 81%
    05:00 +16°C° 0 mm 1 mps 715 mmHg 77%
    06:00 +19°C° 0 mm 1 mps 715 mmHg 73%
    07:00 +20°C° 0 mm 1 mps 715 mmHg 69%
    08:00 +20°C° 0 mm 2 mps 716 mmHg 65%
    09:00 +21°C° 0 mm 2 mps 716 mmHg 62%
    10:00 +22°C° 0 mm 3 mps 716 mmHg 58%
    11:00 +24°C° 0 mm 3 mps 716 mmHg 56%
    12:00 +23°C° 0 mm 4 mps 716 mmHg 54%
    13:00 +25°C° 0 mm 4 mps 716 mmHg 51%
    14:00 +23°C° 0 mm 4 mps 716 mmHg 51%
    15:00 +23°C° 0 mm 4 mps 716 mmHg 50%
    16:00 +23°C° 0 mm 4 mps 716 mmHg 49%
    17:00 +22°C° 0 mm 4 mps 716 mmHg 55%
    18:00 +21°C° 0 mm 3 mps 716 mmHg 61%
    19:00 +19°C° 0 mm 2 mps 716 mmHg 67%
    20:00 +18°C° 0 mm 2 mps 716 mmHg 69%
    21:00 +17°C° 0 mm 2 mps 717 mmHg 71%
    22:00 +16°C° 0 mm 2 mps 717 mmHg 74%
    23:00 +16°C° 0 mm 2 mps 717 mmHg 77%

    23 July, Monday

    Time Temperature Precipitation Wind Pressure Humidity
    00:00 +15°C° 0 mm 2 mps 717 mmHg 80%
    01:00 +15°C° 0 mm 2 mps 717 mmHg 84%
    02:00 +14°C° 0 mm 2 mps 717 mmHg 84%
    03:00 +14°C° 0 mm 2 mps 718 mmHg 85%
    04:00 +14°C° 0 mm 2 mps 718 mmHg 85%
    05:00 +15°C° 0 mm 2 mps 718 mmHg 81%
    06:00 +16°C° 0 mm 2 mps 719 mmHg 77%
    07:00 +18°C° 0 mm 2 mps 719 mmHg 73%
    08:00 +19°C° 0.1 mm 3 mps 719 mmHg 70%
    09:00 +20°C° 0.1 mm 3 mps 719 mmHg 66%
    10:00 +21°C° 0.1 mm 3 mps 719 mmHg 63%
    11:00 +22°C° 0.1 mm 3 mps 719 mmHg 61%
    12:00 +22°C° 0.1 mm 3 mps 719 mmHg 58%
    13:00 +24°C° 0.1 mm 3 mps 719 mmHg 56%
    14:00 +23°C° 0.1 mm 4 mps 719 mmHg 56%
    15:00 +23°C° 0.1 mm 4 mps 719 mmHg 56%
    16:00 +23°C° 0.1 mm 4 mps 718 mmHg 57%
    17:00 +22°C° 0 mm 3 mps 718 mmHg 62%
    18:00 +21°C° 0 mm 2 mps 718 mmHg 67%
    19:00 +20°C° 0 mm 2 mps 718 mmHg 72%
    20:00 +18°C° 0 mm 2 mps 719 mmHg 75%
    21:00 +18°C° 0 mm 1 mps 719 mmHg 79%
    22:00 +15°C° 0 mm 1 mps 719 mmHg 82%
    23:00 +15°C° 0 mm 1 mps 719 mmHg 83%
    Show more